Weather History for North Island, CA

Change the Weather History Date:

Sunday, November 4, 2012

  Actual Average Record
Temperature  
Mean Temperature 74 °F -  
Max Temperature 90 °F 66 °F 99 °F (2010)
Min Temperature 59 °F 53 °F 50 °F (1996)
Cooling Degree Days 9    
Growing Degree Days 24 (Base 50)    
Moisture  
Dew Point 47 °F    
Average Humidity 48    
Maximum Humidity 87    
Minimum Humidity 16    
Precipitation  
Precipitation 0.00 in - - ()
Sea Level Pressure  
Sea Level Pressure 30.01 in    
Wind  
Wind Speed 4 mph (NNW)    
Max Wind Speed 15 mph    
Max Gust Speed -    
Visibility 8 miles    
Events      
Averages and records for this station are not official NWS values.
T = Trace of Precipitation, MM = Missing Value Source: NWS Daily Summary

Daily Weather History Graph

Daily Weather History Graph

Search for Another Location

Airport:

Trip Planner

Search our weather history database for the weather conditions in past years. The results will help you decide how hot, cold, wet, or windy it might be!

Date:

Astronomy

Nov. 04, 2012 Rise Set
Actual Time 6:09 AM PST 4:54 PM PST
Civil Twilight 5:43 AM PST 5:20 PM PST
Nautical Twilight 5:14 AM PST 5:49 PM PST
Astronomical Twilight 4:45 AM PST 6:18 PM PST
Moon 9:39 PM PST (11/4) 10:52 AM PST (11/4)
Length of Visible Light 11h 36m
Length of Day
10h 45m
Waning Gibbous, 71% of the Moon is Illuminated
Nov 4
Waning Gibbous
Nov 6
Last Quarter
Nov 13
New
Nov 20
First Quarter
Nov 28
Full

Hourly Weather History & Observations

Time (PST) Temp. Dew Point Humidity Pressure Visibility Wind Dir Wind Speed Gust Speed Precip Events Conditions
12:52 AM 64.0 °F 59.0 °F 84% 30.03 in 3.0 mi North 3.5 mph - N/A   Partly Cloudy
1:52 AM 63.0 °F 57.9 °F 84% 30.03 in 3.0 mi NNE 3.5 mph - N/A   Partly Cloudy
1:52 AM 61.0 °F 57.0 °F 87% 30.02 in 3.0 mi Calm Calm - N/A   Partly Cloudy
2:52 AM 61.0 °F 55.9 °F 83% 30.01 in 3.0 mi North 3.5 mph - N/A   Partly Cloudy
3:52 AM 59.0 °F 55.0 °F 87% 30.01 in 3.0 mi Calm Calm - N/A   Partly Cloudy
4:52 AM 60.1 °F 55.0 °F 83% 30.01 in 4.0 mi North 4.6 mph - N/A   Partly Cloudy
5:52 AM 60.1 °F 53.1 °F 78% 30.01 in 10.0 mi North 3.5 mph - N/A   Partly Cloudy
6:52 AM 61.0 °F 53.1 °F 75% 30.04 in 10.0 mi North 3.5 mph - N/A   Partly Cloudy
7:52 AM 66.9 °F 51.1 °F 57% 30.06 in 10.0 mi North 3.5 mph - N/A   Partly Cloudy
8:52 AM 73.9 °F 45.0 °F 35% 30.05 in 10.0 mi Calm Calm - N/A   Clear
9:52 AM 80.1 °F 39.0 °F 23% 30.05 in 10.0 mi Calm Calm - N/A   Clear
10:52 AM 86.0 °F 35.1 °F 16% 30.03 in 10.0 mi WNW 3.5 mph - N/A   Clear
11:52 AM 89.1 °F 37.0 °F 16% 30.00 in 10.0 mi NNW 9.2 mph - N/A   Clear
12:52 PM 84.9 °F 41.0 °F 21% 29.98 in 10.0 mi NW 10.4 mph - N/A   Clear
1:52 PM 81.0 °F 50.0 °F 34% 29.97 in 10.0 mi NNW 15.0 mph - N/A   Partly Cloudy
2:52 PM 82.9 °F 45.0 °F 26% 29.97 in 10.0 mi NNW 12.7 mph - N/A   Partly Cloudy
3:52 PM 84.0 °F 36.0 °F 18% 29.97 in 10.0 mi NW 11.5 mph - N/A   Partly Cloudy
4:52 PM 81.0 °F 37.0 °F 21% 29.98 in 10.0 mi NNW 5.8 mph - N/A   Partly Cloudy
5:52 PM 75.0 °F 42.1 °F 31% 30.00 in 10.0 mi NNW 9.2 mph - N/A   Partly Cloudy
6:52 PM 75.0 °F 41.0 °F 29% 30.01 in 10.0 mi North 9.2 mph - N/A   Clear
7:52 PM 73.0 °F 37.0 °F 27% 30.01 in 10.0 mi North 5.8 mph - N/A   Clear
8:52 PM 70.0 °F 39.9 °F 33% 30.03 in 10.0 mi Calm Calm - N/A   Clear
9:52 PM 66.9 °F 52.0 °F 59% 30.03 in 8.0 mi South 3.5 mph - N/A   Clear
10:52 PM 68.0 °F 51.1 °F 55% 30.03 in 10.0 mi North 3.5 mph - N/A   Clear